Regional Weather Roundup
Issued by NWS

Home | Current Version | Previous Version | Graphics & Text | Print | Product List | Glossary On
Versions: 1 2 3 4 5 6 7 8 9 10 11 12 13 14 15 16 17 18 19 20 21 22 23 24 25 26 27 28 29 30 31 32 33 34 35 36 37 38 39 40 41 42 43 44 45 46 47 48 49 50
000
ASUS45 KABQ 200610
RWRNM
NEW MEXICO REGIONAL WEATHER ROUNDUP
NATIONAL WEATHER SERVICE ALBUQUERQUE NM
1200 AM MDT THU JUL 20 2017

NOTE: "FAIR" MEANS FEW OR NO CLOUDS BELOW 12,000 FEET AGL WITH NO
       SIGNIFICANT WEATHER OR OBSTRUCTIONS TO VISION.

      THIS PRODUCT IS RELEASED AS TWO VERSIONS.  ONE VERSION NEAR
      THE TOP OF THE HOUR CONTAINING PRELIMINARY DATA FROM ALBUQUERQUE
      AND OTHER STATIONS.  A FINAL VERSION WITH ADDITIONAL DATA IS
      ISSUED ABOUT 10 MINUTES AFTER THE HOUR.

NMZ501-503-504-510>518-200700-
NORTHWEST PLATEAU/NORTHCENTRAL MOUNTAINS

CITY           SKY/WX    TMP DP  RH WIND       PRES   REMARKS
FARMINGTON     FAIR      78  50  37 NW12      30.16S
6HR MIN TEMP:  77; 6HR MAX TEMP:  95; 6HR PCP: TRACE;

LOS ALAMOS     FAIR      70  46  42 CALM      30.39S
SANTA FE       FAIR      69  54  58 SE9       30.33R
6HR MIN TEMP:  69; 6HR MAX TEMP:  90;

TAOS           FAIR      68  39  34 CALM        N/A
ANGEL FIRE     FAIR      54  46  76 W6        30.48R

$$
NMZ402-403-502-505>509-200700-
WESTCENTRAL MOUNTAINS/SOUTHWEST MOUNTAINS

CITY           SKY/WX    TMP DP  RH WIND       PRES   REMARKS
GALLUP         FAIR      68  53  58 S6        30.29R
6HR MIN TEMP:  67; 6HR MAX TEMP:  89;

GRANTS         FAIR      70  47  44 SE7       30.34R
SILVER CITY    FAIR      64  54  70 S3        30.29R

$$
NMZ407-409-411-412-200700-
SOUTHERN DESERTS

CITY           SKY/WX    TMP DP  RH WIND       PRES   REMARKS
DEMING         FAIR      68  66  93 NE6       30.21S
6HR MIN TEMP:  67; 6HR MAX TEMP:  76; 6HR PCP:  0.03;

LAS CRUCES     FAIR      68  59  73 SE5       30.23S
HOLLOMAN AFB   FAIR      68  63  84 NE5       30.22F
ALAMOGORDO     FAIR      68  63  83 N6        30.22S
T OR C         FAIR      67  63  87 S6        30.24R
6HR MIN TEMP:  67; 6HR MAX TEMP:  92; 6HR PCP:  0.11;


$$
NMZ519>523-200700-
CENTRAL VALLEYS/CENTRAL HIGHLANDS

CITY           SKY/WX    TMP DP  RH WIND       PRES   REMARKS
ALBUQUERQUE    FAIR      71  53  52 SE7       30.27R
6HR MIN TEMP:  71; 6HR MAX TEMP:  93;

DOUBLE EAGLE   FAIR      66  51  59 SE6       30.30S
MORIARTY ARPT  FAIR      66  55  68 SE7       30.34S
6HR MIN TEMP:  66; 6HR MAX TEMP:  90;

CLINES CORNERS FAIR      63  54  72 N7        30.40R
6HR MIN TEMP:  62; 6HR MAX TEMP:  83;

BELEN          FAIR      70  53  54 SE10      30.25S
6HR MIN TEMP:  69; 6HR MAX TEMP:  94;

SOCORRO        FAIR      68  57  68 S12       30.25R
6HR MIN TEMP:  68; 6HR MAX TEMP:  92;


$$
NMZ524>526-539-540-200700-
SOUTHCENTRAL MOUNTAINS

CITY           SKY/WX    TMP DP  RH WIND       PRES   REMARKS
RUIDOSO        FAIR      64  46  52 CALM      30.41S

$$
NMZ527>531-200700-
NORTHEAST HIGHLANDS/NORTHEAST PLAINS

CITY           SKY/WX    TMP DP  RH WIND       PRES   REMARKS
LAS VEGAS      FAIR      65  49  56 S13       30.37S
6HR MIN TEMP:  64; 6HR MAX TEMP:  83;

RATON          FAIR      68  44  42 CALM      30.30S
6HR MIN TEMP:  66; 6HR MAX TEMP:  89;

CLAYTON        FAIR      71  53  52 S13       30.21R
6HR MIN TEMP:  71; 6HR MAX TEMP:  92;


$$
NMZ532>537-200700-
EASTCENTRAL PLAINS

CITY           SKY/WX    TMP DP  RH WIND       PRES   REMARKS
SANTA ROSA     FAIR      74  55  51 S6        30.23R
TUCUMCARI      FAIR      78  60  53 SW14      30.16R
6HR MIN TEMP:  78; 6HR MAX TEMP:  96;

CANNON AFB     FAIR      73  60  63 W5        30.23S
6HR MIN TEMP:  72; 6HR MAX TEMP:  92;

CLOVIS AIRPORT FAIR      72  58  61 W7        30.23R

$$
NMZ028-029-538-200700-
SOUTHEAST PLAINS

CITY           SKY/WX    TMP DP  RH WIND       PRES   REMARKS
ROSWELL        FAIR      74  56  53 S7        30.17S
6HR MIN TEMP:  74; 6HR MAX TEMP:  93;

ARTESIA        FAIR      73  59  60 SW5       30.19R
CARLSBAD       FAIR      73  61  65 S8        30.16R
6HR MIN TEMP:  73; 6HR MAX TEMP:  84; 6HR PCP: TRACE;

HOBBS          FAIR      72  66  83 SW5       30.21R


$$




USA.gov is the U.S. government's official web portal to all federal, state and local government web resources and services.